Bennettsville, SC

4:48 AM EST on January 23, 2017 (GMT -0500)
Marlboro County-Avent

Weather History for KBBP - December, 2012

Change the Weather History Date:

Wednesday, December 26, 2012

  Actual Average (KFLO) Record (KFLO)
Temperature  
Mean Temperature 58 °F -  
Max Temperature 71 °F 53 °F 76 °F (1973)
Min Temperature 44 °F 34 °F 8 °F (1983)
Degree Days  
Heating Degree Days 8    
Growing Degree Days 8 (Base 50)    
Moisture  
Dew Point 47 °F    
Average Humidity 78    
Maximum Humidity 100    
Minimum Humidity 46    
Precipitation  
Precipitation 0.51 in - - ()
Sea Level Pressure  
Sea Level Pressure 29.68 in    
Wind  
Wind Speed 12 mph (SSE)    
Max Wind Speed 24 mph    
Max Gust Speed 33 mph    
Visibility 9 miles    
Events Rain , Thunderstorm    
Averages and records for this station are not official NWS values.
T = Trace of Precipitation, MM = Missing Value Source: NWS Daily Summary

Daily Weather History Graph

Daily Weather History Graph

Search for Another Location

Airport or City:

Trip Planner

Search our weather history database for the weather conditions in past years. The results will help you decide how hot, cold, wet, or windy it might be!

Date:

Astronomy

Dec. 26, 2012 Rise Set
Actual Time 7:24 AM EST 5:15 PM EST
Civil Twilight 6:56 AM EST 5:43 PM EST
Nautical Twilight 6:24 AM EST 6:14 PM EST
Astronomical Twilight 5:54 AM EST 6:45 PM EST
Moon 4:06 PM EST (12/26) 5:47 AM EST (12/26)
Length of Visible Light 10h 46m
Length of Day
9h 50m
Waxing Gibbous, 97% of the Moon is Illuminated
Dec 26
Waxing Gibbous
Dec 28
Full
Jan 4
Last Quarter
Jan 11
New
Jan 18
First Quarter

Hourly Weather History & Observations

Time (EST) Temp. Windchill Dew Point Humidity Pressure Visibility Wind Dir Wind Speed Gust Speed Precip Events Conditions
12:15 AM 53.6 °F - 53.6 °F 100% 29.98 in 10.0 mi ENE 6.9 mph - N/A   Overcast
12:35 AM 53.6 °F - 53.6 °F 100% 29.98 in 10.0 mi East 9.2 mph - N/A   Overcast
12:55 AM 53.6 °F - 51.8 °F 94% 29.98 in 10.0 mi ENE 6.9 mph - N/A   Overcast
1:15 AM 53.6 °F - 51.8 °F 94% 29.98 in 10.0 mi ENE 10.4 mph - N/A Rain Rain
1:35 AM 53.6 °F - 51.8 °F 94% 29.97 in 10.0 mi ENE 11.5 mph - N/A Rain Light Rain
1:55 AM 53.6 °F - 50.0 °F 88% 29.95 in 10.0 mi ENE 11.5 mph 16.1 mph N/A   Overcast
2:15 AM 53.6 °F - 50.0 °F 88% 29.94 in 10.0 mi NE 13.8 mph 20.7 mph N/A   Overcast
2:35 AM 51.8 °F - 46.4 °F 82% 29.93 in 10.0 mi ENE 12.7 mph 20.7 mph N/A   Overcast
2:55 AM 51.8 °F - 46.4 °F 82% 29.93 in 10.0 mi ENE 12.7 mph - N/A   Overcast
3:15 AM 51.8 °F - 46.4 °F 82% 29.92 in 10.0 mi ENE 12.7 mph 17.3 mph N/A   Overcast
3:35 AM 51.8 °F - 46.4 °F 82% 29.90 in 10.0 mi ENE 11.5 mph - N/A   Overcast
3:55 AM 50.0 °F - 48.2 °F 94% 29.89 in 5.0 mi ENE 12.7 mph 18.4 mph 0.02 in Rain Light Rain
4:15 AM 50.0 °F - 48.2 °F 94% 29.88 in 7.0 mi East 11.5 mph 17.3 mph N/A Rain Light Rain
4:35 AM 50.0 °F - 50.0 °F 100% 29.88 in 5.0 mi NE 13.8 mph 20.7 mph 0.01 in Rain Rain
4:55 AM 50.0 °F - 50.0 °F 100% 29.86 in 7.0 mi NE 6.9 mph - 0.02 in Rain Rain
5:15 AM 50.0 °F - 48.2 °F 94% 29.83 in 10.0 mi ENE 15.0 mph - N/A Rain Light Rain
5:35 AM 50.0 °F - 48.2 °F 94% 29.83 in 10.0 mi ENE 16.1 mph 26.5 mph N/A Thunderstorm Overcast
5:55 AM 50.0 °F - 48.2 °F 94% 29.80 in 4.0 mi ENE 16.1 mph 23.0 mph 0.09 in Rain Light Rain
6:15 AM 50.0 °F - 50.0 °F 100% 29.78 in 5.0 mi East 15.0 mph 19.6 mph 0.01 in Rain Light Rain
6:35 AM 50.0 °F - 50.0 °F 100% 29.79 in 7.0 mi East 12.7 mph 20.7 mph 0.01 in   Drizzle
6:55 AM 50.0 °F - 50.0 °F 100% 29.78 in 5.0 mi East 9.2 mph - 0.02 in   Light Drizzle
7:15 AM 50.0 °F - 50.0 °F 100% 29.77 in 10.0 mi ENE 15.0 mph 21.9 mph N/A   Overcast
7:35 AM 50.0 °F - 50.0 °F 100% 29.75 in 10.0 mi ENE 11.5 mph 17.3 mph N/A Rain Rain
7:55 AM 50.0 °F - 50.0 °F 100% 29.72 in 7.0 mi East 11.5 mph - 0.05 in Rain , Thunderstorm Rain
8:15 AM 50.0 °F - 50.0 °F 100% 29.71 in 7.0 mi ESE 11.5 mph - 0.01 in Rain Light Rain
8:35 AM 50.0 °F - 50.0 °F 100% 29.68 in 5.0 mi ENE 16.1 mph 24.2 mph 0.01 in Thunderstorm Overcast
8:55 AM 50.0 °F - 50.0 °F 100% 29.69 in 4.0 mi East 8.1 mph - 0.03 in Rain Rain
9:15 AM 51.8 °F - 51.8 °F 100% 29.69 in 4.0 mi East 9.2 mph - 0.04 in Rain Light Rain
9:35 AM 51.8 °F - 51.8 °F 100% 29.66 in 4.0 mi East 11.5 mph - 0.09 in Rain Light Rain
9:55 AM 51.8 °F - 51.8 °F 100% 29.63 in 4.0 mi East 13.8 mph - 0.13 in Rain , Thunderstorm Light Thunderstorms and Rain
10:15 AM 53.6 °F - 53.6 °F 100% 29.62 in 5.0 mi East 10.4 mph 20.7 mph 0.02 in Rain , Thunderstorm Light Thunderstorms and Rain
10:35 AM 55.4 °F - 55.4 °F 100% 29.61 in 5.0 mi ESE 8.1 mph - 0.05 in Rain , Thunderstorm Rain
10:55 AM 57.2 °F - 57.2 °F 100% 29.57 in 10.0 mi ESE 11.5 mph - 0.10 in Rain Rain
11:15 AM 59.0 °F - 59.0 °F 100% 29.55 in 7.0 mi ESE 10.4 mph - 0.01 in Rain , Thunderstorm Light Thunderstorms and Rain
11:35 AM 60.8 °F - 60.8 °F 100% 29.55 in 7.0 mi SSE 13.8 mph 17.3 mph 0.05 in Rain , Thunderstorm Light Thunderstorms and Rain
11:55 AM 62.6 °F - 62.6 °F 100% 29.52 in 10.0 mi South 9.2 mph 16.1 mph 0.05 in Thunderstorm Overcast
12:15 PM 64.4 °F - 64.4 °F 100% 29.48 in 10.0 mi South 10.4 mph - N/A Thunderstorm Overcast
12:35 PM 68.0 °F - 64.4 °F 88% 29.45 in 10.0 mi South 9.2 mph - N/A   Scattered Clouds
12:55 PM 69.8 °F - 62.6 °F 78% 29.46 in 10.0 mi SSW 17.3 mph 21.9 mph N/A   Mostly Cloudy
1:15 PM 69.8 °F - 60.8 °F 73% 29.45 in 10.0 mi SSW 18.4 mph 24.2 mph N/A   Overcast
1:35 PM 71.6 °F - 55.4 °F 57% 29.43 in 10.0 mi SSW 24.2 mph 29.9 mph N/A   Mostly Cloudy
1:55 PM 69.8 °F - 53.6 °F 56% 29.44 in 10.0 mi SW 21.9 mph 33.4 mph N/A   Scattered Clouds
2:15 PM 69.8 °F - 48.2 °F 46% 29.44 in 10.0 mi SW 21.9 mph 28.8 mph N/A   Scattered Clouds
2:35 PM 68.0 °F - 46.4 °F 46% 29.44 in 10.0 mi SW 16.1 mph 23.0 mph N/A   Clear
2:55 PM 68.0 °F - 46.4 °F 46% 29.45 in 10.0 mi SW 18.4 mph 32.2 mph N/A   Scattered Clouds
3:15 PM 66.2 °F - 46.4 °F 49% 29.45 in 10.0 mi SW 13.8 mph 23.0 mph N/A   Scattered Clouds
3:35 PM 64.4 °F - 46.4 °F 52% 29.45 in 10.0 mi SW 15.0 mph 18.4 mph N/A   Mostly Cloudy
3:55 PM 64.4 °F - 46.4 °F 52% 29.46 in 10.0 mi SW 8.1 mph 19.6 mph N/A   Mostly Cloudy
4:15 PM 64.4 °F - 44.6 °F 49% 29.47 in 10.0 mi SW 19.6 mph 31.1 mph N/A   Overcast
4:35 PM 62.6 °F - 44.6 °F 52% 29.47 in 10.0 mi SW 19.6 mph 27.6 mph N/A   Overcast
4:55 PM 62.6 °F - 42.8 °F 48% 29.48 in 10.0 mi WSW 19.6 mph 28.8 mph N/A   Mostly Cloudy
5:15 PM 60.8 °F - 41.0 °F 48% 29.49 in 10.0 mi WSW 18.4 mph 24.2 mph N/A   Mostly Cloudy
5:35 PM 60.8 °F - 42.8 °F 52% 29.51 in 10.0 mi WSW 12.7 mph 21.9 mph N/A   Overcast
5:55 PM 59.0 °F - 42.8 °F 55% 29.53 in 10.0 mi WSW 24.2 mph 31.1 mph N/A   Overcast
6:15 PM 55.4 °F - 41.0 °F 58% 29.55 in 10.0 mi WSW 19.6 mph 27.6 mph N/A   Overcast
6:35 PM 53.6 °F - 39.2 °F 58% 29.57 in 10.0 mi WSW 13.8 mph 27.6 mph N/A   Scattered Clouds
6:55 PM 51.8 °F - 37.4 °F 58% 29.59 in 10.0 mi West 17.3 mph 23.0 mph N/A   Scattered Clouds
7:15 PM 51.8 °F - 35.6 °F 54% 29.60 in 10.0 mi WSW 19.6 mph 29.9 mph N/A   Overcast
7:55 PM 50.0 °F - 35.6 °F 58% 29.62 in 10.0 mi WSW 16.1 mph 23.0 mph N/A   Overcast
8:15 PM 50.0 °F - 35.6 °F 58% 29.64 in 10.0 mi WSW 18.4 mph 26.5 mph N/A   Overcast
8:35 PM 50.0 °F - 35.6 °F 58% 29.65 in 10.0 mi West 19.6 mph 32.2 mph N/A   Overcast
8:55 PM 48.2 °F - 33.8 °F 58% 29.66 in 10.0 mi WSW 19.6 mph 23.0 mph N/A   Overcast
9:15 PM 48.2 °F - 35.6 °F 62% 29.66 in 10.0 mi WSW 15.0 mph 21.9 mph N/A   Overcast
9:35 PM 46.4 °F 40.7 °F 33.8 °F 62% 29.67 in 10.0 mi WSW 12.7 mph 16.1 mph N/A   Overcast
9:55 PM 46.4 °F 40.4 °F 33.8 °F 62% 29.69 in 10.0 mi WSW 13.8 mph 18.4 mph N/A   Overcast
10:15 PM 46.4 °F 40.7 °F 33.8 °F 62% 29.69 in 10.0 mi WSW 12.7 mph 18.4 mph N/A   Overcast
10:35 PM 46.4 °F 41.1 °F 33.8 °F 62% 29.71 in 10.0 mi WSW 11.5 mph 20.7 mph N/A   Overcast
10:55 PM 44.6 °F 38.4 °F 33.8 °F 66% 29.71 in 10.0 mi WSW 12.7 mph 19.6 mph N/A   Overcast
11:15 PM 44.6 °F 38.1 °F 33.8 °F 66% 29.72 in 10.0 mi SW 13.8 mph 20.7 mph N/A   Scattered Clouds
11:35 PM 44.6 °F 38.8 °F 33.8 °F 66% 29.73 in 10.0 mi WSW 11.5 mph 17.3 mph N/A   Scattered Clouds
11:55 PM 44.6 °F 39.7 °F 33.8 °F 66% 29.74 in 10.0 mi WSW 9.2 mph - N/A   Scattered Clouds